[TLELIST] Archives

 

[list_settings.list_name] Current TLEs

October 30th 2013 PDT

HST 1 20580U 90037B 13302.51008569 .00003937 00000-0 26544-3 0 3638 2 20580 028.4693 111.9923 0003279 348.8998 049.7084 15.04077861 89935 ISS (ZARYA) 1 25544U 98067A 13303.24929522 .00009881 00000-0 18307-3 0 9162 2 25544 051.6499 159.1586 0001772 106.9813 002.4747 15.49655291855656 CXO 1 25867U 99040B 13305.44497683 -.00000230 00000-0 00000+0 0 9699 2 25867 076.1600 331.7683 8422146 276.3858 359.9207 00.37806117 11052 ____________________________________________________________________ These 2-Line ...Continue Reading

[list_settings.list_name] Current TLEs

October 29th 2013 PDT

HST 1 20580U 90037B 13300.93864644 .00003255 00000-0 21738-3 0 3628 2 20580 028.4693 122.3014 0003241 332.5482 180.4412 15.04070986 89703 ISS (ZARYA) 1 25544U 98067A 13302.21607818 .00023325 00000-0 42066-3 0 9101 2 25544 051.6506 164.2746 0001606 096.1526 005.4762 15.49647108855497 CXO 1 25867U 99040B 13302.80080619 -.00000110 00000-0 00000+0 0 9689 2 25867 076.1462 331.9337 8421798 276.4046 359.9890 00.37801961 11047 ____________________________________________________________________ These 2-Line ...Continue Reading

[list_settings.list_name] Current TLEs

October 28th 2013 PDT

HST 1 20580U 90037B 13300.93864644 .00003255 00000-0 21738-3 0 3628 2 20580 028.4693 122.3014 0003241 332.5482 180.4412 15.04070986 89703 ISS (ZARYA) 1 25544U 98067A 13301.39164618 .00008944 00000-0 16682-3 0 9032 2 25544 051.6488 168.3534 0001870 100.0064 079.3593 15.49599616855369 CXO 1 25867U 99040B 13302.80080619 -.00000110 00000-0 00000+0 0 9689 2 25867 076.1462 331.9337 8421798 276.4046 359.9890 00.37801961 11047 ____________________________________________________________________ These 2-Line ...Continue Reading

[list_settings.list_name] Current TLEs

October 27th 2013 PDT

HST 1 20580U 90037B 13299.81549769 .00002461 00000-0 16144-3 0 3612 2 20580 028.4694 129.6702 0003250 321.6293 217.9006 15.04066460 89535 ISS (ZARYA) 1 25544U 98067A 13300.38910880 .00008703 00000-0 16264-3 0 8959 2 25544 051.6482 173.3163 0001910 095.0794 247.9137 15.49580042855208 CXO 1 25867U 99040B 13302.80080619 -.00000110 00000-0 00000+0 0 9689 2 25867 076.1462 331.9337 8421798 276.4046 359.9890 00.37801961 11047 ____________________________________________________________________ These 2-Line ...Continue Reading

[list_settings.list_name] Current TLEs

October 26th 2013 PDT

HST 1 20580U 90037B 13298.79975676 .00002713 00000-0 17917-3 0 3606 2 20580 028.4694 136.3327 0003154 308.1136 120.6958 15.04066929 89370 ISS (ZARYA) 1 25544U 98067A 13299.42402778 .00008519 00000-0 15949-3 0 8889 2 25544 051.6480 178.0961 0002167 094.6212 261.1551 15.49562528855059 CXO 1 25867U 99040B 13300.15658341 -.00000067 00000-0 00000+0 0 9678 2 25867 076.1319 332.0640 8423138 276.4491 359.9858 00.37798829 11032 ____________________________________________________________________ These 2-Line ...Continue Reading

[list_settings.list_name] Current TLEs

October 25th 2013 PDT

HST 1 20580U 90037B 13297.02374242 .00002999 00000-0 19944-3 0 3599 2 20580 028.4692 147.9830 0003071 288.2364 225.1775 15.04054326 89112 ISS (ZARYA) 1 25544U 98067A 13298.45733796 -.00004849 00000-0 -78366-4 0 8829 2 25544 051.6460 182.8837 0002121 088.8189 270.8223 15.49540596854907 CXO 1 25867U 99040B 13300.15658341 -.00000067 00000-0 00000+0 0 9678 2 25867 076.1319 332.0640 8423138 276.4491 359.9858 00.37798829 11032 ____________________________________________________________________ These 2-Line ...Continue Reading

[list_settings.list_name] Current TLEs

October 24th 2013 PDT

HST 1 20580U 90037B 13297.02374242 .00002999 00000-0 19944-3 0 3599 2 20580 028.4692 147.9830 0003071 288.2364 225.1775 15.04054326 89112 ISS (ZARYA) 1 25544U 98067A 13297.49003314 .00011755 00000-0 20629-3 0 8749 2 25544 051.6489 187.6717 0002547 056.3165 303.8585 15.49900722854767 CXO 1 25867U 99040B 13297.51110186 -.00000114 00000-0 00000+0 0 9665 2 25867 076.1126 332.2053 8426817 276.4878 359.8058 00.37801000 11020 ____________________________________________________________________ These 2-Line ...Continue Reading

[list_settings.list_name] Current TLEs

October 23rd 2013 PDT

HST 1 20580U 90037B 13295.81670461 .00002986 00000-0 19855-3 0 3582 2 20580 028.4691 155.9012 0003010 275.5268 169.3797 15.04049349 88927 ISS (ZARYA) 1 25544U 98067A 13296.45387731 .00015971 00000-0 28848-3 0 8646 2 25544 051.6494 192.7984 0002775 060.2381 274.7913 15.49878626854592 CXO 1 25867U 99040B 13297.51110186 -.00000114 00000-0 00000+0 0 9665 2 25867 076.1126 332.2053 8426817 276.4878 359.8058 00.37801000 11020 ____________________________________________________________________ These 2-Line ...Continue Reading

[list_settings.list_name] Current TLEs

October 22nd 2013 PDT

HST 1 20580U 90037B 13294.09950120 .00002924 00000-0 19420-3 0 3573 2 20580 028.4689 167.1660 0002947 256.0455 232.6089 15.04041693 88672 ISS (ZARYA) 1 25544U 98067A 13295.52467044 .00020941 00000-0 37583-3 0 8570 2 25544 051.6500 197.4019 0002970 054.6192 132.4727 15.49853806854456 CXO 1 25867U 99040B 13297.51110186 -.00000114 00000-0 00000+0 0 9665 2 25867 076.1126 332.2053 8426817 276.4878 359.8058 00.37801000 11020 ____________________________________________________________________ These 2-Line ...Continue Reading

[list_settings.list_name] Current TLEs

October 21st 2013 PDT

HST 1 20580U 90037B 13294.09950120 .00002924 00000-0 19420-3 0 3573 2 20580 028.4689 167.1660 0002947 256.0455 232.6089 15.04041693 88672 ISS (ZARYA) 1 25544U 98067A 13294.45532407 .00014993 00000-0 27187-3 0 8497 2 25544 051.6518 202.6925 0002822 049.7290 287.1204 15.49820542854280 CXO 1 25867U 99040B 13294.86809635 -.00000235 00000-0 00000+0 0 9657 2 25867 076.0956 332.3734 8429721 276.5102 359.9700 00.37803511 11018 ____________________________________________________________________ These 2-Line ...Continue Reading
  • This mailing list is a public mailing list - anyone may join or leave, at any time.
  • This mailing list is announce-only.

International Space Station (ISS) / Hubble Space Telescope (HST) / Chandra X-Ray Observatory Orbital Data via EMAIL

Privacy Policy:

Private list